Погода в Зайкова

Россия / Тюменская область     57°07′28″N   65°40′24″E
темп.,
°C
ветер,
м/с
пор.,
м/с
влажн.,
%
обл.,
%
осадки,
мм/ч
давл.,
гПа
погр.,
м
12 апреля, пн
пн1223:00+5юз4138497 0.0 1032375
02:00+5юз4108999 0.0 1032265
05:00+4юз2795100 0.0 1032154
08:00+6з2698100 0.3 1032165
11:00+9сз378899 0.3 1033585
14:00+12сз4650100 0.0 10331055
17:00+12сз4656100 0.0 10351324
20:00+8сз3869100 0.0 1036188
13 апреля, вт
вт1323:00+5сз25690 0.0 103877
02:00+3сз22750 0.0 103918
05:00+2сз22770 0.0 104029
08:00+5зсз24650 0.0 1041178
11:00+9з34440 0.0 1041858
14:00+13зюз34330 0.0 10391184
17:00+13зюз45384 0.0 10381130
20:00+8юз37675 0.0 1037141
14 апреля, ср
ср1423:00+6юз387788 0.0 1036165
02:00+5юз31178100 0.0 1034232
05:00+5юз41274100 0.0 1033282
08:00+8зюз41272100 0.0 1032360
11:00+14зюз59629 0.0 1030673
14:00+18з574984 0.0 10281213
17:00+18з4649100 0.0 10271241
20:00+13зюз237595 0.0 102753
15 апреля, чт
чт1523:00+11зюз378755 0.0 1026121
02:00+10зюз259130 0.0 102577
05:00+9зюз269251 0.0 102592
08:00+11з387712 0.0 1024249
11:00+17з474652 0.0 10221107
14:00+19з57315 0.0 10211495
17:00+19з463247 0.0 10191512
20:00+14зюз225861 0.0 101825
16 апреля, пт
пт1623:00+12юз37765 0.0 1017116
02:00+10юз37885 0.0 1016133
05:00+9юз249143 0.0 101566
08:00+12зюз257736 0.0 1013195
11:00+17зюз345321 0.0 1012914
14:00+19зюз353954 0.0 10102288
17:00+19зсз443159 0.0 10082298
20:00+11ссв497370 0.0 1009476